loading
|

THOR ABLESTAR DEB, 260

Orbit data source: Space-Track

THOR ABLESTAR DEB, 260 is space debris in LEO originally from a launch on Thu, 29 Jun 1961 UTC launched from the Air Force Eastern Test Range (AFETR). Debris objects in space refer to the collection of defunct objects orbiting the Earth. Examples of debris include non-operational satellites, rocket bodies, and fragments generated from explosions, collisions, or faulty payload assembly.

Loading next visibility...
Loading greatness...
THOR ABLESTAR DEB details
Identifier
260, 1961-015CG
Orbit
LEO
Last TLE update16 hours ago
Origin
Flag of USUSAF SSD (US)
ManufacturerUnknown
Mission statusUnknown
MissionUnknown
Bus & MotorUnknown
MassUnknown
Launch date (UTC)
1961-06-29 (63 years ago)
Launch vehicleUnknown
Launch site
Air Force Eastern Test Range (AFETR)
Object type
Payload
Rocket body
Debris
Radar Cross SectionSmall (<0.1 m²)

Expand to show TLE details & history

TLE from 16 hours ago
0 THOR ABLESTAR DEB
1   260U 61015CG  24258.65920412  .00007801  00000-0  24662-2 0  9999
2   260  66.7688 106.3095 0054657 243.0752 116.4761 14.39755538264429
Epoch: 2024-09-14T15:49Z
Definitive object data (Epoch: 2024-09-14T15:49:15.235Z)
Latitude-0.00009°
Longitude-125.11777°
Altitude778.992 km
Speed7.456 km/s
True Right ascension07h 05m 14s
True Declination0° 00' 00"
Sunlit
Object was in daylight at TLE epoch
Predictive object data (real-time)
Latitude8.54205°
Longitude49.46153°
Altitude748.402 km
Speed7.488 km/s
Apparent Right ascension16h 15m 36s
Apparent Declination-20° 28' 41"
Sunlit
Object is in daylight
Predictive observer data (real-time)
Local Sidereal Time00:15:49
Azimuth272.309° WNW
Elevation-35.754°
Doppler factor1
Orbital elements
Apogee796.668 km
Perigee718.664 km
Semi-major axis7,135.803 km
Eccentricity0.0054657
Inclination66.7688°
RAAN106.3095°
Arg. of periapsis243.0752°
True anomaly117.03502°
Mean anomaly116.4761°
Eccentric anomaly116.75573°
Mean motion3.60063 °/min
BSTAR0.0024662
Period99.98 mins
No data available

THOR ABLESTAR DEB Visibility forecast

Observer location: 39.9160978°, -105.1181434

THOR ABLESTAR DEB is not visible in the next 10 days
Span
Click to sort rows by Start time (UTC) header in descending order
Start Az.
Max El. time (UTC)
Max El. Az.
Max El.
End time (UTC)
End Az.